Vorticity
11 12 13 13 11 10 10 11 12 12 10 8 7 6 6 5 6 6 6 8 12 16 19 20 18 16 14 11 10 9 9 9 9 10 11 12 12 12 12 13 16 19 22 24 22 19 18 16 16 10 2 -7 -4 -2 -2 -3 -5 -7 -9 -10 -9 -9 -10 -12 -10 -8 -7 -10 -11
9 11 12 13 13 12 11 10 12 12 12 10 8 7 6 5 6 6 6 6 7 10 14 18 19 18 17 14 12 11 10 10 9 10 10 11 12 11 11 11 13 16 21 25 24 20 16 15 17 17 14 7 4 4 2 -5 -11 -11 -8 -7 -8 -10 -11 -11 -8 -6 -6 -9 -10
7 9 11 13 14 13 12 11 11 12 13 12 10 8 7 6 6 6 6 6 6 7 10 13 16 17 18 17 15 13 12 11 10 10 10 11 11 11 11 11 11 13 17 22 24 22 16 10 12 15 17 18 14 12 9 5 -4 -6 -6 -5 -6 -8 -9 -8 -5 -3 -3 -4 -6
6 8 10 13 14 15 14 12 11 11 12 13 12 10 8 7 6 6 6 6 7 7 7 9 11 14 16 17 17 17 15 13 11 10 10 10 11 12 12 11 11 11 13 17 21 23 21 15 8 9 13 17 18 17 16 16 13 6 0 -3 -4 -3 -2 -1 -1 -1 0 1 2
6 7 9 11 13 15 15 14 12 11 11 12 12 11 10 8 7 6 6 6 6 7 7 7 9 11 12 14 15 16 17 17 14 12 10 9 10 10 11 12 11 11 11 13 17 20 22 22 17 11 7 12 17 19 19 20 22 18 13 9 9 9 8 6 3 1 2 3 6
5 6 7 9 12 14 16 17 14 12 11 11 12 12 11 9 8 7 6 6 6 7 7 8 8 9 10 11 12 13 15 17 17 16 13 9 8 8 8 10 11 11 11 11 14 16 19 20 22 20 16 11 16 18 19 20 23 24 24 21 18 16 13 10 8 5 3 4 6
5 5 6 7 10 13 16 18 16 14 12 11 11 12 12 11 9 8 7 6 6 6 7 8 8 8 8 9 10 10 11 13 16 18 18 15 11 9 8 8 9 10 11 12 12 14 16 18 18 19 20 16 14 15 17 18 19 21 23 25 21 16 12 11 11 7 3 3 4
5 5 5 6 8 11 15 18 18 16 14 12 11 12 12 12 10 9 7 6 6 6 6 7 8 9 9 9 9 9 9 9 12 16 19 19 15 13 12 10 8 8 9 11 12 12 13 15 16 16 17 18 14 13 14 15 16 17 18 20 18 14 10 7 6 5 2 -1 1
5 5 5 5 7 10 13 17 19 18 16 13 12 11 12 12 11 10 9 7 6 6 6 6 7 9 10 9 9 8 8 7 8 10 14 18 16 14 13 14 12 8 6 7 9 9 9 10 13 15 16 18 14 10 8 11 13 15 17 23 26 22 14 7 5 3 1 -1 2
5 5 5 5 6 8 11 15 19 20 19 16 13 12 11 12 12 11 10 8 7 6 6 5 6 8 9 10 10 9 8 7 6 6 8 12 14 14 13 14 14 12 9 6 7 9 10 8 10 12 14 16 17 13 8 6 10 13 16 21 25 25 22 18 11 7 6 7 6
5 5 5 4 5 6 9 13 17 20 21 19 15 13 12 12 12 11 11 9 8 7 6 6 6 6 8 10 11 11 10 9 7 6 5 6 11 14 16 14 11 10 10 10 8 9 10 11 11 11 11 13 17 18 16 8 8 10 13 16 20 22 21 19 16 14 13 13 8
5 5 5 5 4 5 7 11 15 19 21 21 18 15 13 12 12 12 11 10 9 8 7 6 6 6 6 8 10 11 12 11 9 7 5 4 7 12 16 17 11 7 4 7 11 11 9 10 11 11 11 11 13 16 17 15 10 9 10 11 18 23 26 24 22 19 15 12 8
5 5 5 5 5 6 7 10 14 18 21 22 20 17 14 12 12 12 11 11 10 9 8 7 6 6 6 6 8 10 12 13 12 10 7 5 5 8 13 18 13 7 2 -1 6 11 13 12 12 12 11 11 12 13 14 15 12 9 8 9 13 17 21 21 17 12 8 7 6
4 4 5 5 5 6 7 10 13 17 20 22 21 19 16 13 12 12 11 11 11 10 9 8 7 6 6 5 6 8 10 13 13 13 11 8 6 7 10 16 15 9 2 -3 -0 6 11 14 14 13 12 12 12 12 12 13 13 10 8 7 9 11 13 15 15 15 13 8 8
4 4 4 4 5 6 7 10 13 17 20 22 22 20 18 15 13 12 11 11 11 11 10 9 8 7 6 6 5 6 7 10 13 14 13 12 9 7 9 14 16 11 4 -2 -2 2 7 12 14 14 13 12 12 11 11 12 13 12 10 8 7 7 9 10 13 14 14 12 12
5 4 4 3 4 6 8 11 14 17 20 22 22 21 19 16 14 13 12 12 12 11 10 10 9 8 7 6 6 5 6 7 10 12 14 15 13 10 9 12 15 13 7 0 -1 0 4 9 12 14 14 13 12 11 11 12 12 13 13 9 6 5 6 8 9 11 13 15 15
5 4 3 2 3 5 8 11 15 17 20 22 22 21 19 17 15 13 13 12 12 11 11 10 10 9 8 7 6 6 5 5 7 9 12 15 15 14 12 11 14 14 10 2 -1 -1 2 6 9 12 13 13 13 12 11 11 12 13 13 10 7 6 6 7 8 9 10 12 15
6 5 3 2 3 5 8 12 15 18 20 22 22 22 20 17 15 14 13 13 12 12 11 11 10 10 9 8 7 7 6 5 5 6 9 12 15 16 15 13 14 15 13 6 -1 -2 -0 3 5 8 10 12 13 12 11 10 11 13 13 12 8 7 7 8 8 9 10 10 12
6 5 4 2 2 4 8 12 15 18 20 22 22 22 20 17 15 14 14 14 13 13 12 12 11 10 10 9 8 7 7 6 5 5 6 8 11 14 16 16 15 16 15 11 3 -2 -2 0 1 3 5 8 10 12 12 13 13 15 15 14 10 7 6 8 10 11 11 11 10
7 6 4 3 3 4 7 12 15 18 21 22 22 22 20 17 15 14 13 14 14 13 13 12 12 11 10 10 9 8 7 7 6 5 5 6 8 11 14 16 17 17 17 15 9 2 -1 -1 -0 -0 0 2 6 9 12 13 14 15 16 15 12 8 6 6 9 12 13 13 11
7 7 6 5 4 5 8 11 15 18 21 23 23 22 20 17 15 13 13 14 14 14 14 13 12 12 11 11 10 9 8 8 7 6 5 5 6 7 10 14 16 17 18 18 14 9 3 0 1 0 -1 -1 2 5 9 11 12 13 14 15 14 11 8 5 6 8 11 13 13
8 8 7 7 6 6 8 11 15 18 21 23 23 21 20 17 15 13 12 13 14 15 15 14 13 12 12 11 11 10 9 8 8 7 6 5 5 6 7 10 13 16 18 19 18 14 10 4 3 2 1 -0 0 2 5 9 10 11 12 13 14 13 11 7 4 4 6 11 14
9 9 8 8 8 8 9 11 15 18 21 23 23 21 19 17 15 13 12 12 13 15 15 15 14 13 12 12 11 11 10 9 9 8 7 6 6 5 6 7 9 13 16 18 19 18 15 11 7 5 3 2 1 1 3 5 8 9 10 11 13 14 14 12 8 4 3 6 12
10 9 9 9 10 10 11 12 15 18 21 23 23 21 20 17 15 13 12 11 12 14 15 16 15 14 13 13 12 11 11 10 9 9 8 7 7 6 6 5 7 9 12 16 18 19 18 17 13 10 7 5 3 2 2 3 5 7 8 9 11 14 18 19 14 9 4 2 6
11 11 10 10 11 12 13 14 16 18 21 22 22 22 20 18 16 14 12 11 12 13 15 16 16 15 14 13 13 12 11 11 10 9 9 8 7 7 6 6 6 7 9 12 15 17 19 19 17 15 12 9 6 4 3 2 2 4 5 7 8 11 16 21 20 16 10 4 3
12 12 11 11 12 13 14 16 17 18 20 21 22 21 20 18 16 15 13 12 12 13 14 16 16 16 15 14 13 13 12 11 11 10 9 9 8 7 7 6 6 6 7 8 11 14 17 19 20 19 17 15 12 9 6 3 1 1 2 4 5 7 11 18 23 22 17 11 6
13 13 13 13 13 14 15 16 18 19 20 20 21 20 20 19 17 15 14 12 12 13 14 15 16 17 16 15 14 13 13 12 11 11 10 9 9 8 7 7 7 6 6 7 8 10 13 16 19 20 21 20 17 14 11 8 4 1 -0 0 2 4 6 11 18 20 19 16 10
14 14 15 15 15 16 16 17 19 19 20 20 20 19 19 19 17 16 14 13 13 13 14 15 16 17 17 16 15 14 13 13 12 11 11 10 9 8 8 7 7 7 6 6 7 8 10 12 15 18 20 22 21 20 17 14 9 5 1 -2 -1 1 4 6 10 13 15 15 13
13 14 16 17 17 17 17 18 19 20 20 20 19 19 18 18 17 16 15 14 14 14 14 15 16 17 18 17 16 15 14 13 13 12 12 11 10 9 8 7 7 7 7 7 7 7 8 9 11 14 17 20 22 22 22 20 16 11 6 0 -2 -1 2 5 6 7 9 12 14
13 14 16 18 19 19 19 19 19 20 20 20 20 19 18 18 17 16 16 15 14 14 14 15 16 17 18 18 18 16 15 14 13 13 13 12 11 10 9 7 7 7 7 7 7 7 7 7 9 10 13 15 18 21 23 23 21 18 13 6 1 -1 -0 3 5 5 5 6 11
13 14 16 18 20 21 21 20 20 20 21 20 20 19 18 17 17 16 16 15 15 15 15 15 16 17 18 19 19 17 16 14 13 13 13 13 13 11 10 8 7 7 7 8 8 8 7 7 7 8 10 11 14 17 20 23 24 23 20 15 8 2 -0 0 3 4 5 5 6
13 14 16 18 21 23 24 23 22 21 21 21 20 19 18 17 17 17 16 16 16 16 16 16 16 17 18 19 20 19 17 15 14 13 13 14 14 13 11 9 8 7 7 8 9 9 9 8 7 7 8 9 11 13 16 19 22 24 24 22 16 10 4 1 1 3 4 5 5
13 14 16 17 20 23 25 25 24 22 21 21 20 19 18 17 17 17 17 17 17 16 16 16 16 17 18 19 20 20 18 16 15 14 13 14 14 14 13 11 10 8 7 7 9 10 10 10 9 8 7 8 9 10 12 14 18 21 24 25 23 18 12 6 2 1 2 4 5
14 14 15 16 18 21 23 25 24 23 22 21 20 19 18 17 17 17 17 17 17 17 17 17 17 17 18 19 20 20 20 18 15 14 14 14 14 14 13 13 12 10 8 7 8 10 11 11 11 10 8 8 8 8 9 11 13 16 20 24 25 24 21 15 8 4 1 2 4
14 14 14 15 17 19 21 23 23 23 22 22 21 19 18 17 17 17 17 17 18 18 18 18 18 17 18 19 20 21 20 18 16 14 14 14 14 13 13 13 13 12 10 9 8 9 10 11 12 12 11 9 8 8 8 9 10 12 15 19 23 25 26 24 18 12 6 1 2
12 11 12 13 15 18 19 20 21 21 22 22 21 20 19 17 17 17 18 18 18 19 19 19 18 18 18 19 20 21 21 19 17 15 14 14 14 13 12 12 12 12 11 10 10 9 9 10 12 12 13 12 10 9 8 8 9 10 11 13 17 21 24 27 26 22 16 8 4
8 8 8 10 14 16 18 19 19 19 20 21 21 20 20 18 18 18 18 19 19 20 20 20 19 19 19 19 20 21 21 20 17 15 13 13 13 13 12 11 11 11 10 10 10 10 9 9 10 11 13 14 13 11 9 8 8 9 9 10 12 15 19 23 26 27 25 20 13
5 4 5 6 10 14 17 18 17 18 19 20 21 20 20 19 19 19 19 19 20 20 20 20 20 20 19 19 19 20 20 20 18 15 13 12 12 13 13 12 11 10 9 9 10 10 10 8 8 8 10 13 14 14 12 10 9 8 8 9 10 11 13 16 20 24 27 27 24
1 1 1 2 6 11 15 18 17 17 18 20 20 20 19 19 19 19 20 20 21 21 21 21 20 20 19 19 19 20 20 20 18 16 13 11 11 12 12 12 11 10 9 8 9 10 10 9 7 7 7 9 12 14 15 13 11 9 9 8 9 9 10 12 14 18 21 25 27
-0 -1 -1 -1 2 7 12 16 17 18 19 20 19 19 18 18 19 19 20 21 22 22 22 21 20 19 19 19 19 19 19 19 17 15 13 11 11 11 12 12 12 10 9 8 8 9 9 9 8 7 6 6 9 12 15 16 14 12 10 9 9 9 9 10 11 12 15 18 22
-1 -1 -2 -2 -1 2 7 13 17 19 20 20 19 18 17 17 18 19 20 20 22 22 22 22 20 19 19 19 19 19 19 18 17 15 13 12 11 11 11 12 12 11 10 8 8 9 9 10 9 7 6 4 5 8 11 15 16 15 13 10 9 9 9 9 9 10 11 13 15
Height
5636 5636 5636 5636 5636 5636 5636 5636 5636 5636 5636 5636 5635 5635 5635 5635 5635 5635 5634 5634 5634 5634 5634 5634 5635 5635 5636 5637 5637 5638 5638 5639 5640 5641 5641 5642 5643 5644 5646 5647 5649 5651 5654 5657 5660 5662 5663 5665 5667 5668 5668 5669 5671 5673 5676 5678 5680 5682 5684 5686 5687 5689 5691 5693 5694 5696 5698 5700 5702
5634 5633 5634 5634 5634 5634 5634 5634 5634 5634 5634 5634 5633 5633 5633 5633 5633 5633 5633 5633 5633 5632 5632 5632 5633 5633 5634 5634 5635 5636 5637 5637 5638 5638 5639 5640 5641 5642 5643 5644 5646 5648 5651 5654 5657 5659 5660 5662 5664 5665 5667 5667 5668 5670 5673 5675 5677 5678 5680 5683 5685 5686 5688 5691 5693 5694 5696 5698 5700
5631 5631 5631 5631 5632 5632 5632 5632 5632 5632 5632 5632 5632 5631 5631 5631 5631 5631 5631 5631 5631 5631 5631 5631 5631 5631 5632 5632 5633 5634 5635 5635 5636 5637 5637 5638 5639 5640 5641 5643 5644 5646 5648 5650 5653 5656 5658 5659 5661 5663 5664 5665 5667 5668 5670 5672 5674 5675 5678 5680 5683 5684 5686 5688 5690 5692 5694 5696 5698
5629 5628 5628 5628 5629 5629 5629 5629 5629 5629 5629 5629 5629 5629 5629 5629 5629 5629 5629 5629 5629 5629 5629 5629 5629 5629 5629 5630 5631 5632 5632 5633 5634 5635 5635 5636 5637 5638 5639 5640 5642 5643 5645 5647 5650 5652 5655 5657 5658 5659 5661 5663 5664 5666 5667 5669 5671 5673 5675 5677 5680 5682 5684 5686 5687 5689 5692 5693 5695
5626 5626 5626 5626 5626 5626 5626 5627 5627 5627 5627 5627 5627 5627 5627 5627 5626 5626 5627 5627 5627 5627 5627 5627 5627 5627 5628 5628 5628 5629 5630 5631 5632 5632 5633 5634 5635 5636 5637 5638 5639 5640 5642 5644 5646 5649 5651 5653 5656 5657 5658 5660 5661 5663 5665 5666 5669 5671 5672 5674 5677 5680 5682 5684 5685 5687 5688 5690 5692
5623 5623 5623 5623 5623 5623 5623 5623 5623 5623 5624 5624 5624 5624 5624 5624 5624 5624 5624 5624 5624 5625 5625 5625 5625 5625 5625 5626 5626 5627 5628 5628 5629 5630 5631 5632 5633 5634 5635 5636 5637 5638 5639 5641 5643 5645 5648 5650 5652 5654 5656 5657 5658 5660 5662 5664 5666 5668 5670 5672 5675 5677 5679 5681 5683 5684 5686 5688 5689
5621 5620 5620 5620 5619 5620 5620 5620 5620 5620 5621 5621 5621 5621 5622 5622 5622 5622 5622 5622 5622 5622 5622 5623 5623 5623 5623 5624 5624 5625 5625 5626 5627 5628 5628 5630 5631 5632 5633 5634 5635 5636 5637 5638 5640 5642 5644 5647 5648 5651 5653 5654 5656 5657 5659 5661 5663 5665 5667 5669 5672 5674 5677 5679 5681 5683 5684 5685 5687
5618 5617 5617 5617 5617 5616 5617 5617 5617 5617 5617 5618 5618 5618 5618 5619 5619 5619 5619 5619 5619 5619 5620 5620 5620 5621 5621 5621 5622 5622 5623 5624 5624 5625 5626 5627 5628 5630 5630 5631 5633 5634 5635 5636 5638 5639 5641 5643 5645 5647 5649 5652 5653 5654 5656 5658 5660 5662 5664 5667 5669 5671 5674 5676 5678 5680 5682 5683 5684
5614 5614 5614 5613 5613 5613 5613 5613 5613 5614 5614 5614 5614 5615 5615 5616 5616 5616 5616 5616 5617 5617 5617 5617 5618 5618 5618 5619 5619 5620 5621 5621 5622 5623 5624 5625 5626 5628 5628 5629 5630 5631 5633 5634 5635 5637 5638 5640 5643 5644 5646 5648 5650 5652 5653 5655 5657 5659 5661 5663 5666 5668 5671 5673 5675 5677 5678 5680 5681
5611 5611 5610 5610 5610 5610 5610 5610 5610 5610 5610 5611 5611 5611 5612 5612 5613 5613 5613 5613 5613 5614 5614 5614 5615 5615 5616 5616 5617 5618 5618 5618 5619 5620 5621 5622 5623 5625 5626 5627 5628 5629 5630 5631 5633 5634 5636 5638 5639 5641 5643 5644 5647 5649 5651 5653 5654 5656 5658 5660 5663 5665 5668 5669 5671 5673 5675 5677 5679
5608 5607 5607 5607 5607 5606 5606 5606 5606 5607 5607 5607 5607 5608 5608 5608 5609 5609 5610 5610 5610 5611 5611 5612 5612 5612 5613 5613 5614 5615 5615 5616 5617 5618 5618 5619 5621 5622 5623 5625 5626 5627 5628 5629 5630 5632 5633 5635 5636 5638 5640 5641 5643 5646 5648 5650 5651 5653 5655 5657 5660 5662 5664 5666 5668 5670 5673 5674 5676
5604 5604 5603 5603 5603 5603 5603 5603 5603 5603 5603 5603 5603 5604 5604 5604 5605 5606 5607 5607 5607 5608 5608 5608 5609 5609 5610 5610 5611 5612 5613 5613 5614 5615 5616 5617 5618 5619 5620 5622 5623 5625 5626 5627 5628 5629 5630 5632 5633 5635 5637 5638 5640 5642 5644 5646 5648 5650 5652 5654 5656 5658 5661 5663 5665 5668 5669 5671 5673
5601 5600 5600 5599 5599 5599 5599 5599 5599 5599 5599 5600 5600 5600 5600 5601 5601 5602 5603 5603 5604 5604 5605 5605 5606 5606 5607 5607 5608 5608 5609 5610 5611 5612 5613 5614 5615 5616 5617 5618 5620 5622 5623 5624 5625 5626 5627 5628 5630 5632 5634 5635 5637 5638 5640 5642 5644 5646 5648 5650 5653 5655 5657 5659 5662 5664 5666 5668 5670
5597 5596 5596 5596 5595 5595 5595 5595 5595 5595 5595 5596 5596 5596 5597 5597 5597 5598 5599 5600 5601 5601 5602 5602 5603 5603 5603 5604 5605 5605 5606 5607 5608 5608 5609 5610 5612 5613 5614 5615 5617 5618 5619 5620 5622 5623 5625 5625 5627 5629 5631 5632 5634 5635 5637 5638 5641 5643 5645 5647 5649 5651 5653 5655 5658 5660 5663 5664 5667
5593 5593 5592 5592 5591 5591 5591 5591 5591 5591 5592 5592 5592 5592 5593 5593 5593 5594 5595 5596 5597 5597 5598 5598 5599 5599 5600 5601 5601 5602 5603 5603 5604 5605 5606 5607 5608 5610 5611 5612 5613 5614 5615 5616 5618 5620 5622 5623 5624 5625 5627 5629 5631 5632 5633 5635 5637 5639 5642 5644 5646 5647 5649 5651 5653 5656 5658 5660 5663
5589 5589 5588 5588 5587 5587 5587 5587 5587 5587 5588 5588 5588 5588 5588 5589 5589 5590 5591 5591 5592 5593 5594 5595 5595 5596 5597 5597 5598 5598 5599 5600 5601 5602 5603 5604 5605 5606 5608 5609 5610 5611 5612 5613 5614 5616 5618 5619 5621 5622 5624 5625 5627 5629 5630 5632 5634 5636 5638 5640 5643 5644 5645 5647 5649 5651 5653 5656 5658
5585 5585 5584 5583 5583 5583 5583 5583 5583 5583 5583 5583 5583 5584 5584 5584 5585 5586 5586 5587 5588 5589 5590 5591 5592 5593 5593 5593 5594 5595 5596 5597 5598 5598 5599 5600 5601 5603 5604 5606 5607 5608 5608 5609 5610 5612 5613 5615 5617 5619 5621 5622 5623 5625 5627 5629 5630 5632 5634 5636 5638 5640 5642 5643 5645 5647 5649 5652 5654
5581 5580 5580 5579 5579 5578 5578 5579 5579 5579 5579 5579 5579 5579 5580 5580 5581 5581 5582 5583 5583 5585 5586 5587 5588 5588 5589 5590 5591 5592 5592 5593 5594 5595 5596 5597 5598 5599 5600 5602 5603 5604 5605 5606 5606 5607 5609 5611 5613 5615 5617 5618 5620 5621 5623 5625 5627 5628 5630 5632 5634 5636 5638 5640 5641 5643 5646 5648 5650
5577 5576 5575 5575 5574 5574 5574 5574 5574 5574 5575 5575 5575 5575 5575 5576 5576 5577 5578 5578 5579 5580 5581 5583 5584 5584 5585 5586 5587 5588 5588 5589 5590 5591 5592 5593 5594 5595 5597 5598 5599 5601 5602 5603 5603 5603 5605 5607 5609 5611 5613 5615 5617 5618 5619 5621 5623 5624 5626 5628 5630 5632 5634 5636 5638 5639 5642 5643 5645
5572 5571 5571 5570 5570 5569 5570 5570 5570 5570 5570 5570 5570 5571 5571 5571 5572 5572 5573 5574 5575 5576 5577 5578 5579 5580 5581 5582 5583 5584 5585 5586 5587 5588 5588 5589 5590 5592 5593 5594 5596 5597 5598 5599 5599 5600 5601 5603 5605 5607 5608 5610 5612 5614 5616 5618 5619 5621 5623 5624 5627 5628 5631 5633 5635 5636 5638 5639 5641
5567 5567 5566 5565 5565 5565 5565 5565 5566 5566 5566 5566 5566 5566 5567 5567 5567 5568 5568 5569 5570 5571 5572 5573 5575 5576 5577 5578 5579 5580 5581 5582 5583 5584 5585 5586 5587 5588 5589 5590 5592 5593 5595 5596 5597 5597 5597 5598 5600 5602 5604 5606 5608 5610 5612 5614 5616 5617 5619 5621 5623 5625 5627 5629 5632 5633 5635 5636 5638
5563 5562 5561 5561 5560 5560 5560 5561 5561 5562 5562 5562 5562 5562 5562 5563 5563 5563 5564 5565 5566 5567 5568 5569 5570 5572 5573 5574 5575 5576 5577 5578 5579 5580 5581 5582 5583 5584 5585 5587 5588 5589 5591 5592 5593 5594 5594 5595 5596 5598 5600 5602 5603 5605 5607 5609 5611 5613 5616 5618 5619 5621 5623 5625 5628 5629 5631 5633 5634
5558 5557 5557 5556 5556 5556 5556 5556 5557 5557 5558 5558 5558 5558 5558 5558 5558 5559 5559 5560 5562 5563 5563 5564 5565 5567 5568 5570 5571 5572 5573 5574 5575 5576 5577 5578 5579 5580 5582 5583 5584 5585 5587 5588 5590 5591 5592 5592 5593 5594 5596 5598 5599 5601 5603 5605 5607 5609 5611 5613 5615 5617 5619 5621 5623 5625 5627 5629 5631
5553 5553 5552 5552 5552 5552 5552 5552 5552 5553 5553 5554 5554 5554 5554 5554 5554 5555 5555 5556 5557 5558 5559 5560 5561 5562 5564 5565 5567 5568 5569 5570 5572 5573 5573 5574 5576 5577 5578 5579 5580 5582 5583 5584 5586 5587 5588 5589 5590 5591 5592 5594 5595 5597 5598 5600 5602 5604 5606 5608 5611 5613 5615 5617 5619 5621 5623 5625 5628
5548 5548 5548 5547 5547 5547 5547 5548 5548 5548 5549 5549 5550 5550 5550 5550 5550 5550 5551 5551 5552 5553 5554 5555 5556 5558 5559 5561 5562 5563 5565 5566 5567 5568 5570 5571 5572 5573 5574 5575 5577 5578 5579 5581 5582 5583 5585 5586 5588 5588 5589 5591 5592 5593 5595 5596 5598 5599 5602 5603 5606 5608 5610 5613 5614 5617 5619 5622 5624
5544 5543 5543 5543 5543 5543 5543 5543 5543 5544 5544 5545 5545 5546 5546 5546 5546 5546 5547 5547 5548 5548 5549 5551 5552 5553 5555 5556 5558 5559 5560 5561 5563 5564 5566 5567 5568 5569 5570 5572 5573 5574 5576 5577 5578 5580 5581 5583 5584 5586 5587 5588 5590 5591 5593 5594 5595 5596 5597 5599 5601 5603 5606 5608 5610 5613 5615 5618 5620
5539 5539 5538 5538 5538 5538 5538 5539 5539 5539 5540 5540 5541 5542 5542 5542 5542 5542 5542 5542 5543 5543 5544 5546 5547 5548 5550 5551 5553 5554 5556 5557 5558 5560 5561 5563 5564 5565 5567 5568 5569 5570 5572 5573 5575 5576 5577 5579 5580 5582 5583 5585 5587 5588 5590 5591 5592 5593 5594 5595 5597 5598 5601 5603 5606 5608 5610 5613 5615
5535 5534 5534 5533 5533 5533 5534 5534 5535 5535 5535 5536 5536 5537 5537 5538 5538 5538 5538 5538 5538 5538 5540 5541 5542 5544 5545 5547 5548 5549 5551 5552 5554 5555 5557 5558 5560 5561 5563 5564 5565 5567 5568 5569 5571 5572 5573 5575 5577 5578 5580 5581 5583 5585 5587 5588 5589 5590 5591 5592 5593 5594 5596 5598 5601 5603 5606 5608 5611
5532 5531 5530 5529 5529 5529 5529 5530 5530 5531 5531 5531 5532 5532 5533 5533 5533 5533 5533 5533 5533 5534 5535 5536 5538 5539 5541 5542 5544 5545 5547 5548 5550 5551 5553 5554 5556 5557 5559 5560 5561 5563 5564 5566 5567 5568 5570 5571 5573 5574 5576 5577 5579 5581 5583 5584 5586 5588 5588 5589 5589 5590 5592 5594 5596 5598 5601 5603 5606
5528 5527 5526 5526 5525 5524 5524 5525 5525 5526 5527 5527 5527 5528 5528 5528 5528 5528 5528 5528 5529 5529 5530 5531 5533 5535 5536 5538 5539 5541 5542 5543 5545 5547 5548 5550 5552 5553 5555 5556 5558 5559 5560 5562 5563 5564 5566 5568 5569 5570 5572 5573 5575 5577 5578 5580 5582 5584 5585 5586 5586 5587 5588 5589 5592 5594 5596 5598 5601
5525 5524 5523 5522 5521 5521 5520 5520 5521 5521 5522 5522 5523 5523 5523 5523 5523 5523 5524 5524 5524 5525 5525 5527 5528 5530 5532 5533 5534 5536 5538 5539 5541 5543 5544 5546 5548 5549 5551 5552 5554 5555 5556 5558 5559 5561 5562 5564 5565 5567 5568 5569 5571 5573 5574 5576 5578 5580 5581 5583 5583 5584 5584 5585 5587 5589 5591 5593 5596
5522 5521 5520 5519 5518 5517 5516 5516 5516 5517 5517 5518 5518 5518 5518 5518 5519 5519 5519 5519 5520 5520 5521 5522 5524 5525 5527 5528 5530 5532 5533 5535 5537 5538 5540 5542 5543 5545 5547 5548 5550 5551 5552 5554 5555 5557 5558 5560 5561 5563 5564 5566 5567 5569 5570 5572 5573 5575 5577 5579 5580 5581 5582 5582 5583 5585 5587 5589 5591
5518 5518 5517 5516 5515 5514 5513 5512 5512 5512 5513 5513 5513 5513 5514 5514 5514 5514 5515 5515 5515 5516 5517 5518 5519 5521 5522 5524 5525 5527 5529 5531 5533 5534 5536 5538 5539 5541 5543 5544 5546 5547 5548 5550 5551 5553 5554 5556 5558 5559 5561 5562 5563 5565 5566 5568 5569 5571 5573 5575 5577 5578 5579 5579 5580 5581 5583 5584 5586
5515 5514 5513 5513 5512 5511 5510 5509 5508 5508 5508 5508 5508 5509 5509 5509 5510 5510 5510 5511 5511 5512 5513 5513 5515 5516 5517 5519 5521 5523 5524 5526 5528 5530 5532 5533 5535 5537 5539 5540 5541 5543 5544 5546 5548 5549 5551 5552 5554 5555 5557 5558 5560 5561 5563 5564 5566 5568 5569 5571 5573 5575 5576 5577 5578 5578 5579 5580 5582
5512 5511 5510 5509 5508 5508 5507 5506 5505 5504 5504 5504 5504 5504 5504 5505 5505 5506 5506 5507 5507 5508 5508 5509 5510 5512 5513 5514 5516 5518 5520 5522 5524 5525 5527 5529 5531 5533 5534 5536 5537 5539 5541 5542 5543 5545 5547 5548 5550 5552 5553 5554 5556 5558 5559 5561 5562 5564 5565 5567 5569 5571 5573 5574 5575 5576 5576 5577 5578
5508 5507 5506 5506 5505 5504 5503 5502 5502 5501 5500 5500 5499 5500 5500 5500 5501 5501 5502 5503 5503 5504 5504 5505 5506 5508 5509 5510 5512 5513 5515 5517 5519 5521 5523 5525 5527 5528 5530 5531 5533 5535 5537 5538 5539 5541 5543 5544 5546 5548 5549 5551 5552 5554 5555 5557 5558 5560 5562 5563 5565 5567 5569 5570 5572 5573 5574 5575 5576
5504 5504 5503 5502 5502 5501 5500 5499 5498 5498 5497 5496 5495 5495 5496 5496 5497 5497 5498 5498 5499 5500 5500 5501 5502 5503 5504 5506 5507 5509 5511 5513 5514 5517 5519 5521 5523 5524 5526 5527 5529 5531 5533 5534 5535 5537 5539 5540 5542 5544 5545 5547 5548 5550 5552 5553 5555 5556 5558 5560 5561 5563 5565 5566 5568 5570 5572 5573 5573
5501 5500 5499 5499 5498 5498 5497 5496 5495 5494 5493 5492 5492 5492 5492 5492 5492 5493 5493 5494 5495 5495 5496 5497 5498 5499 5500 5501 5503 5504 5506 5508 5510 5512 5514 5516 5518 5520 5521 5523 5525 5527 5528 5530 5532 5533 5535 5537 5538 5540 5542 5543 5545 5546 5548 5550 5551 5553 5554 5556 5558 5559 5561 5563 5564 5566 5568 5570 5571
5497 5496 5496 5495 5495 5494 5493 5493 5492 5491 5490 5489 5488 5488 5488 5488 5488 5489 5489 5490 5491 5491 5492 5493 5493 5494 5495 5497 5498 5500 5502 5504 5506 5508 5510 5512 5514 5515 5517 5519 5521 5523 5524 5526 5528 5529 5531 5533 5534 5536 5538 5539 5541 5543 5544 5546 5548 5549 5551 5553 5554 5556 5557 5559 5561 5563 5564 5566 5568
5492 5492 5492 5491 5491 5490 5490 5489 5488 5487 5486 5486 5485 5484 5484 5484 5484 5485 5485 5486 5487 5487 5488 5488 5489 5490 5491 5493 5494 5496 5498 5500 5502 5503 5505 5507 5509 5511 5513 5514 5516 5518 5520 5522 5523 5525 5527 5529 5530 5532 5534 5535 5537 5539 5540 5542 5544 5546 5547 5549 5551 5552 5554 5556 5557 5559 5560 5562 5564
5488 5488 5488 5487 5487 5487 5486 5485 5484 5484 5483 5482 5481 5481 5480 5480 5480 5481 5481 5482 5482 5483 5483 5484 5485 5486 5487 5488 5490 5492 5494 5496 5497 5499 5501 5503 5504 5507 5508 5510 5512 5514 5516 5518 5520 5521 5523 5525 5526 5528 5530 5532 5533 5535 5537 5538 5540 5542 5543 5545 5547 5549 5551 5552 5554 5555 5557 5558 5560